| time (UTC) | temp F | wind direction | speed knots | gust knots | rain 1hr in | rain 24hr in | rain mn in | humidity % | barometer mb |
| 20260906210108 | 67 | 263 | 3.5 | 7.0 | 0.00 | 0.00 | 0.00 | 59 | 1014.3 |
| 20260906204544 | 67 | 265 | 6.1 | 9.6 | 0.00 | 0.00 | 0.00 | 58 | 1014.2 |
| 20260906203040 | 67 | 260 | 7.0 | 10.4 | 0.00 | 0.00 | 0.00 | 55 | 1014.4 |
| 20260906201547 | 67 | 300 | 5.2 | 9.6 | 0.00 | 0.00 | 0.00 | 57 | 1014.5 |
| 20260906200040 | 66 | 317 | 4.3 | 10.4 | 0.00 | 0.00 | 0.00 | 60 | 1014.4 |
| 20260906194536 | 65 | 271 | 5.2 | 11.3 | 0.00 | 0.00 | 0.00 | 62 | 1014.4 |
| 20260906193039 | 64 | 281 | 7.0 | 12.2 | 0.00 | 0.00 | 0.00 | 61 | 1014.4 |
| 20260906191548 | 64 | 273 | 7.0 | 13.0 | 0.00 | 0.00 | 0.00 | 63 | 1014.6 |
| 20260906190038 | 63 | 265 | 6.1 | 10.4 | 0.00 | 0.00 | 0.00 | 65 | 1014.7 |
| 20260906184539 | 62 | 293 | 6.1 | 10.4 | 0.00 | 0.00 | 0.00 | 65 | 1014.9 |
| 20260906183036 | 60 | 282 | 1.7 | 7.0 | 0.00 | 0.00 | 0.00 | 72 | 1015.0 |
| 20260906181541 | 59 | 287 | 1.7 | 3.5 | 0.00 | 0.00 | 0.00 | 75 | 1014.9 |
| 20260906180057 | 59 | 0 | 0.0 | 0.0 | 0.00 | 0.00 | 0.00 | 77 | 1015.0 |
| 20260906174550 | 58 | 0 | 0.0 | 6.1 | 0.00 | 0.00 | 0.00 | 79 | 1015.0 |
| 20260906173036 | 57 | 286 | 1.7 | 6.1 | 0.00 | 0.00 | 0.00 | 81 | 1015.0 |
| 20260906171538 | 57 | 286 | 3.5 | 7.8 | 0.00 | 0.00 | 0.00 | 82 | 1014.9 |
| 20260906170036 | 56 | 290 | 6.1 | 10.4 | 0.00 | 0.00 | 0.00 | 83 | 1014.7 |
| 20260906164537 | 56 | 277 | 6.1 | 9.6 | 0.00 | 0.00 | 0.00 | 82 | 1014.8 |
| 20260906163038 | 56 | 273 | 3.5 | 7.0 | 0.00 | 0.00 | 0.00 | 84 | 1015.4 |
| 20260906161538 | 56 | 279 | 3.5 | 7.0 | 0.00 | 0.00 | 0.00 | 85 | 1015.8 |
| 20260906160045 | 55 | 283 | 2.6 | 5.2 | 0.00 | 0.00 | 0.00 | 83 | 1016.0 |
| 20260906154545 | 55 | 283 | 0.9 | 3.5 | 0.00 | 0.00 | 0.00 | 80 | 1015.9 |
| 20260906153102 | 56 | 283 | 4.3 | 9.6 | 0.00 | 0.00 | 0.00 | 76 | 1015.6 |
| 20260906151552 | 55 | 296 | 6.1 | 9.6 | 0.00 | 0.00 | 0.00 | 78 | 1014.9 |
| 20260906150044 | 54 | 313 | 3.5 | 7.8 | 0.00 | 0.00 | 0.00 | 81 | 1014.7 |
| 20260906144543 | 54 | 277 | 2.6 | 5.2 | 0.00 | 0.00 | 0.00 | 83 | 1014.8 |
| 20260906143043 | 53 | 332 | 0.0 | 2.6 | 0.00 | 0.00 | 0.00 | 82 | 1015.0 |
| 20260906141538 | 53 | 332 | 2.6 | 5.2 | 0.00 | 0.00 | 0.00 | 81 | 1014.7 |
| 20260906140038 | 53 | 333 | 3.5 | 7.0 | 0.00 | 0.00 | 0.00 | 80 | 1014.5 |
| 20260906134549 | 54 | 336 | 2.6 | 8.7 | 0.00 | 0.00 | 0.00 | 79 | 1014.5 |
| 20260906133049 | 54 | 344 | 4.3 | 8.7 | 0.00 | 0.00 | 0.00 | 79 | 1014.3 |
| 20260906131539 | 53 | 336 | 4.3 | 8.7 | 0.00 | 0.00 | 0.00 | 80 | 1014.3 |
| 20260906130035 | 53 | 323 | 3.5 | 9.6 | 0.00 | 0.00 | 0.00 | 82 | 1014.4 |
| 20260906124539 | 53 | 315 | 3.5 | 7.8 | 0.00 | 0.00 | 0.00 | 82 | 1014.3 |
| 20260906123052 | 53 | 311 | 4.3 | 8.7 | 0.00 | 0.00 | 0.00 | 81 | 1014.5 |
| 20260906121541 | 53 | 313 | 4.3 | 7.8 | 0.00 | 0.00 | 0.00 | 81 | 1014.6 |
| 20260906120039 | 53 | 325 | 2.6 | 7.0 | 0.00 | 0.00 | 0.00 | 80 | 1014.7 |
| 20260906114541 | 53 | 325 | 3.5 | 7.0 | 0.00 | 0.00 | 0.00 | 80 | 1014.6 |
| 20260906113043 | 53 | 325 | 2.6 | 7.0 | 0.00 | 0.00 | 0.00 | 81 | 1014.8 |
| 20260906111538 | 53 | 323 | 3.5 | 7.0 | 0.00 | 0.00 | 0.00 | 81 | 1014.8 |
| 20260906110035 | 53 | 320 | 2.6 | 7.0 | 0.00 | 0.00 | 0.00 | 81 | 1015.0 |
| 20260906104536 | 53 | 319 | 2.6 | 7.8 | 0.00 | 0.00 | 0.00 | 80 | 1015.3 |
| 20260906103047 | 53 | 319 | 3.5 | 8.7 | 0.00 | 0.00 | 0.00 | 81 | 1015.0 |
| 20260906101538 | 52 | 307 | 4.3 | 9.6 | 0.00 | 0.00 | 0.00 | 81 | 1014.9 |
| 20260906100038 | 52 | 304 | 5.2 | 10.4 | 0.00 | 0.00 | 0.00 | 80 | 1014.7 |
| 20260906094541 | 52 | 315 | 5.2 | 12.2 | 0.00 | 0.00 | 0.00 | 81 | 1014.8 |
| 20260906093040 | 52 | 298 | 7.8 | 10.4 | 0.00 | 0.00 | 0.00 | 79 | 1014.9 |
| 20260906091543 | 53 | 340 | 4.3 | 7.8 | 0.00 | 0.00 | 0.00 | 78 | 1014.8 |
| 20260906090056 | 53 | 340 | 3.5 | 7.8 | 0.00 | 0.00 | 0.00 | 77 | 1014.9 |
| 20260906084538 | 53 | 342 | 4.3 | 7.8 | 0.00 | 0.00 | 0.00 | 77 | 1014.8 |
| 20260906083038 | 53 | 342 | 1.7 | 5.2 | 0.00 | 0.00 | 0.00 | 77 | 1015.3 |
| 20260906081539 | 53 | 342 | 3.5 | 7.0 | 0.00 | 0.00 | 0.00 | 77 | 1015.4 |
| 20260906080038 | 54 | 343 | 3.5 | 8.7 | 0.00 | 0.00 | 0.00 | 76 | 1015.4 |
| 20260906074536 | 54 | 347 | 4.3 | 8.7 | 0.00 | 0.00 | 0.00 | 76 | 1015.6 |
| 20260906073040 | 54 | 350 | 2.6 | 7.8 | 0.00 | 0.00 | 0.00 | 75 | 1015.6 |
| 20260906071537 | 55 | 360 | 2.6 | 6.1 | 0.00 | 0.00 | 0.00 | 74 | 1015.6 |
| 20260906070041 | 55 | 22 | 0.9 | 3.5 | 0.00 | 0.00 | 0.00 | 75 | 1015.7 |
| 20260906064535 | 56 | 23 | 0.9 | 3.5 | 0.00 | 0.00 | 0.00 | 75 | 1015.7 |
| 20260906063047 | 56 | 0 | 0.0 | 3.5 | 0.00 | 0.00 | 0.00 | 75 | 1015.6 |
| 20260906061538 | 56 | 23 | 0.9 | 3.5 | 0.00 | 0.00 | 0.00 | 76 | 1015.7 |
| 20260906060039 | 57 | 23 | 1.7 | 3.5 | 0.00 | 0.00 | 0.00 | 75 | 1015.7 |
| 20260906054541 | 58 | 23 | 1.7 | 4.3 | 0.00 | 0.00 | 0.00 | 75 | 1015.8 |
| 20260906053037 | 59 | 24 | 1.7 | 3.5 | 0.00 | 0.00 | 0.00 | 74 | 1015.9 |
| 20260906051552 | 60 | 24 | 0.9 | 3.5 | 0.00 | 0.00 | 0.00 | 73 | 1015.9 |
| 20260906050049 | 62 | 40 | 3.5 | 8.7 | 0.00 | 0.00 | 0.00 | 69 | 1016.0 |
| 20260906044546 | 63 | 191 | 1.7 | 3.5 | 0.00 | 0.00 | 0.00 | 68 | 1015.7 |
| 20260906043047 | 63 | 189 | 0.9 | 3.5 | 0.00 | 0.00 | 0.00 | 68 | 1015.7 |
| 20260906041536 | 64 | 189 | 1.7 | 2.6 | 0.00 | 0.00 | 0.00 | 66 | 1015.8 |
| 20260906040038 | 64 | 189 | 2.6 | 3.5 | 0.00 | 0.00 | 0.00 | 65 | 1015.7 |
| 20260906034540 | 64 | 188 | 2.6 | 3.5 | 0.00 | 0.00 | 0.00 | 66 | 1015.7 |
| 20260906033037 | 65 | 0 | 0.0 | 0.0 | 0.00 | 0.00 | 0.00 | 63 | 1015.6 |
| 20260906031546 | 66 | 0 | 0.0 | 0.0 | 0.00 | 0.00 | 0.00 | 61 | 1015.5 |
| 20260906030039 | 67 | 0 | 0.0 | 0.0 | 0.00 | 0.00 | 0.00 | 60 | 1015.2 |
| 20260906024542 | 68 | 0 | 0.0 | 0.0 | 0.00 | 0.00 | 0.00 | 53 | 1015.2 |
| 20260906023037 | 68 | 0 | 0.0 | 0.0 | 0.00 | 0.00 | 0.00 | 57 | 1015.1 |
| 20260906021544 | 69 | 0 | 0.0 | 0.0 | 0.00 | 0.00 | 0.00 | 54 | 1015.2 |
| 20260906020042 | 71 | 0 | 0.0 | 0.0 | 0.00 | 0.00 | 0.00 | 55 | 1015.2 |
| 20260906014541 | 71 | 0 | 0.0 | 0.0 | 0.00 | 0.00 | 0.00 | 49 | 1015.3 |
| 20260906013055 | 73 | 0 | 0.0 | 0.0 | 0.00 | 0.00 | 0.00 | 53 | 1015.2 |
| 20260906011547 | 73 | 0 | 0.0 | 0.0 | 0.00 | 0.00 | 0.00 | 50 | 1015.3 |
| 20260906010043 | 73 | 0 | 0.0 | 2.6 | 0.00 | 0.00 | 0.00 | 47 | 1015.4 |
| 20260906004539 | 73 | 184 | 0.0 | 3.5 | 0.00 | 0.00 | 0.00 | 53 | 1015.3 |
| 20260906003041 | 73 | 184 | 0.9 | 3.5 | 0.00 | 0.00 | 0.00 | 51 | 1015.4 |
| 20260906001544 | 72 | 184 | 1.7 | 4.3 | 0.00 | 0.00 | 0.00 | 50 | 1015.4 |
| 20260906000047 | 73 | 184 | 1.7 | 4.3 | 0.00 | 0.00 | 0.00 | 51 | 1015.4 |
| 20260905234539 | 73 | 184 | 1.7 | 5.2 | 0.00 | 0.00 | 0.00 | 49 | 1015.5 |
| 20260905233043 | 73 | 267 | 0.9 | 3.5 | 0.00 | 0.00 | 0.00 | 47 | 1015.4 |
| 20260905231542 | 73 | 267 | 2.6 | 5.2 | 0.00 | 0.00 | 0.00 | 49 | 1015.5 |
| 20260905230042 | 73 | 0 | 0.0 | 1.7 | 0.00 | 0.00 | 0.00 | 47 | 1015.5 |
| 20260905224536 | 73 | 0 | 0.0 | 2.6 | 0.00 | 0.00 | 0.00 | 50 | 1015.6 |
| 20260905223041 | 72 | 267 | 1.7 | 6.1 | 0.00 | 0.00 | 0.00 | 50 | 1015.7 |
| 20260905221540 | 72 | 0 | 0.0 | 3.5 | 0.00 | 0.00 | 0.00 | 49 | 1015.7 |
| 20260905220041 | 72 | 290 | 1.7 | 3.5 | 0.00 | 0.00 | 0.00 | 49 | 1016.0 |
| 20260905214539 | 72 | 294 | 0.9 | 7.8 | 0.00 | 0.00 | 0.00 | 51 | 1016.1 |
| 20260905213040 | 71 | 283 | 1.7 | 7.8 | 0.00 | 0.00 | 0.00 | 51 | 1016.2 |
| 20260905211539 | 71 | 284 | 1.7 | 4.3 | 0.00 | 0.00 | 0.00 | 53 | 1016.2 |